Radiation Dose at Monitoring Post of Fukushima Daini Nuclear Power Station
Date,Time,MP-1(microSv/h),MP-2(microSv/h),MP-3(microSv/h),MP-4(microSv/h),MP-5(microSv/h),MP-6(microSv/h),MP-7(microSv/h),Wind Direction,Wind Velocity(m/s),Rain
2016/06/05,00:00,0.438,0.261,0.459,0.421,0.394,0.213,0.186,south-southwest,3.5,No
2016/06/05,00:10,0.442,0.259,0.456,0.427,0.395,0.213,0.187,south-southwest,3.5,No
2016/06/05,00:20,0.439,0.262,0.461,0.423,0.391,0.214,0.186,south-southwest,3.9,No
2016/06/05,00:30,0.441,0.260,0.459,0.423,0.396,0.214,0.186,south-southwest,2.8,No
2016/06/05,00:40,0.439,0.261,0.459,0.426,0.393,0.213,0.187,south-southwest,1.7,No
2016/06/05,00:50,0.440,0.259,0.460,0.421,0.396,0.214,0.186,south-southwest,2.6,No
2016/06/05,01:00,0.439,0.261,0.458,0.426,0.396,0.213,0.187,south-southwest,2.7,No
2016/06/05,01:10,0.441,0.260,0.461,0.421,0.392,0.213,0.187,south-southwest,3.0,No
2016/06/05,01:20,0.441,0.261,0.457,0.426,0.397,0.213,0.187,south-southwest,1.4,No
2016/06/05,01:30,0.438,0.260,0.459,0.423,0.392,0.213,0.185,west-southwest,2.6,No
2016/06/05,01:40,0.442,0.262,0.458,0.422,0.396,0.213,0.187,west-northwest,4.3,No
2016/06/05,01:50,0.438,0.260,0.460,0.425,0.394,0.213,0.184,west-northwest,3.1,No
2016/06/05,02:00,0.442,0.259,0.460,0.421,0.392,0.214,0.186,west-northwest,3.6,No
2016/06/05,02:10,0.437,0.261,0.458,0.425,0.396,0.213,0.185,northwest,3.5,No
2016/06/05,02:20,0.441,0.259,0.461,0.421,0.391,0.214,0.186,west-northwest,1.9,No
2016/06/05,02:30,0.438,0.261,0.457,0.423,0.397,0.212,0.186,west-northwest,2.3,No
2016/06/05,02:40,0.439,0.259,0.462,0.425,0.394,0.214,0.186,north,0.7,No
2016/06/05,02:50,0.440,0.260,0.457,0.420,0.392,0.212,0.186,south-southeast,0.7,No
2016/06/05,03:00,0.439,0.259,0.459,0.427,0.396,0.212,0.186,east,2.2,No
2016/06/05,03:10,0.440,0.260,0.460,0.422,0.392,0.212,0.187,north-northeast,1.6,No
2016/06/05,03:20,0.439,0.260,0.460,0.425,0.395,0.213,0.186,north-northeast,1.9,No
2016/06/05,03:30,0.441,0.261,0.461,0.424,0.394,0.213,0.187,north-northeast,1.4,No
2016/06/05,03:40,0.439,0.260,0.459,0.423,0.393,0.212,0.185,northeast,1.8,No
2016/06/05,03:50,0.441,0.259,0.461,0.425,0.395,0.214,0.186,east,1.4,No
2016/06/05,04:00,0.439,0.260,0.458,0.422,0.390,0.211,0.185,east-southeast,1.2,No
2016/06/05,04:10,0.441,0.259,0.460,0.426,0.396,0.213,0.187,southeast,0.8,No
2016/06/05,04:20,0.439,0.260,0.458,0.423,0.393,0.214,0.185,east,0.6,No
2016/06/05,04:30,0.441,0.259,0.459,0.425,0.395,0.213,0.186,-,CALM,No
2016/06/05,04:40,0.439,0.262,0.459,0.425,0.397,0.212,0.187,-,CALM,No
2016/06/05,04:50,0.441,0.260,0.459,0.423,0.391,0.213,0.186,northwest,2.0,No
2016/06/05,05:00,0.440,0.261,0.462,0.426,0.397,0.214,0.186,northwest,2.5,No
2016/06/05,05:10,0.439,0.260,0.459,0.422,0.393,0.214,0.186,west-northwest,1.9,No
2016/06/05,05:20,0.442,0.261,0.461,0.425,0.394,0.213,0.185,northwest,2.3,No
2016/06/05,05:30,0.439,0.259,0.458,0.424,0.395,0.212,0.187,west-northwest,2.1,No
2016/06/05,05:40,0.440,0.261,0.461,0.425,0.391,0.213,0.185,north,2.2,No
2016/06/05,05:50,0.435,0.259,0.457,0.426,0.399,0.213,0.186,east-southeast,1.5,No
2016/06/05,06:00,0.441,0.262,0.461,0.422,0.392,0.213,0.186,southeast,1.1,No
2016/06/05,06:10,0.436,0.260,0.456,0.427,0.394,0.212,0.186,east-southeast,0.9,No
2016/06/05,06:20,0.440,0.259,0.459,0.422,0.394,0.212,0.186,-,CALM,No
2016/06/05,06:30,0.440,0.262,0.460,0.424,0.391,0.212,0.185,northeast,0.7,No
2016/06/05,06:40,0.438,0.260,0.458,0.426,0.396,0.212,0.186,southeast,1.5,No
2016/06/05,06:50,0.441,0.261,0.462,0.419,0.394,0.213,0.186,northeast,1.2,No
2016/06/05,07:00,0.438,0.260,0.457,0.424,0.391,0.212,0.187,northeast,1.6,No
2016/06/05,07:10,0.441,0.259,0.458,0.424,0.394,0.212,0.187,northeast,1.3,No
2016/06/05,07:20,0.438,0.260,0.461,0.420,0.395,0.213,0.185,northeast,1.1,No
2016/06/05,07:30,0.439,0.259,0.457,0.425,0.392,0.213,0.187,northeast,1.2,No
2016/06/05,07:40,0.441,0.258,0.459,0.425,0.391,0.213,0.185,northeast,1.8,No
2016/06/05,07:50,0.436,0.260,0.461,0.421,0.394,0.211,0.186,northeast,2.6,No
2016/06/05,08:00,0.440,0.258,0.457,0.417,0.394,0.213,0.186,northeast,2.5,No
2016/06/05,08:10,0.442,0.258,0.456,0.417,0.393,0.211,0.185,northeast,1.6,No
2016/06/05,08:20,0.436,0.257,0.453,0.417,0.390,0.211,0.184,north,1.0,No
2016/06/05,08:30,0.436,0.258,0.454,0.418,0.390,0.212,0.185,-,CALM,No
2016/06/05,08:40,0.442,0.259,0.452,0.420,0.391,0.211,0.186,southeast,1.3,No
2016/06/05,08:50,0.442,0.258,0.456,0.418,0.391,0.211,0.186,southeast,2.3,No
2016/06/05,09:00,0.438,0.259,0.464,0.421,0.391,0.212,0.186,south-southeast,2.7,No
2016/06/05,09:10,0.437,0.259,0.461,0.421,0.392,0.212,0.186,south-southeast,1.6,No
2016/06/05,09:20,0.438,0.259,0.459,0.422,0.391,0.212,0.185,south-southeast,1.8,No
2016/06/05,09:30,0.438,0.260,0.456,0.423,0.393,0.213,0.185,south-southeast,2.8,No
2016/06/05,09:40,0.437,0.260,0.455,0.422,0.392,0.213,0.184,south-southeast,3.5,No
2016/06/05,09:50,0.437,0.261,0.459,0.422,0.392,0.213,0.184,south,3.0,No
2016/06/05,10:00,0.437,0.260,0.463,0.423,0.392,0.215,0.185,south,3.4,No
2016/06/05,10:10,0.436,0.259,0.463,0.421,0.393,0.214,0.184,south,1.7,No
2016/06/05,10:20,0.437,0.260,0.460,0.421,0.393,0.213,0.183,south,4.2,No
2016/06/05,10:30,0.436,0.259,0.458,0.423,0.392,0.214,0.185,south,2.0,No
2016/06/05,10:40,0.434,0.259,0.458,0.421,0.392,0.213,0.185,south,3.6,No
2016/06/05,10:50,0.437,0.261,0.457,0.422,0.393,0.212,0.185,south,4.6,No
2016/06/05,11:00,0.438,0.259,0.456,0.421,0.392,0.213,0.185,south,8.4,No
2016/06/05,11:10,0.437,0.259,0.457,0.423,0.393,0.214,0.186,south,7.9,No
2016/06/05,11:20,0.436,0.259,0.456,0.422,0.392,0.213,0.187,south,9.1,No
2016/06/05,11:30,0.437,0.258,0.456,0.423,0.395,0.213,0.185,south-southeast,9.2,No
2016/06/05,11:40,0.437,0.258,0.457,0.423,0.394,0.213,0.185,south,9.8,No
2016/06/05,11:50,0.443,0.257,0.457,0.421,0.394,0.213,0.186,south,10.7,No
2016/06/05,12:00,0.442,0.257,0.456,0.423,0.391,0.214,0.185,south,10.1,No
2016/06/05,12:10,0.440,0.258,0.457,0.421,0.392,0.213,0.184,south,8.4,No
2016/06/05,12:20,0.439,0.258,0.458,0.422,0.392,0.213,0.185,south,10.1,No
2016/06/05,12:30,0.438,0.259,0.457,0.421,0.392,0.212,0.187,south,10.7,No
2016/06/05,12:40,0.434,0.261,0.458,0.424,0.392,0.213,0.186,south,11.5,No
2016/06/05,12:50,0.436,0.260,0.455,0.423,0.396,0.213,0.186,south,8.9,No
2016/06/05,13:00,0.441,0.258,0.456,0.424,0.397,0.214,0.186,south,9.2,No
2016/06/05,13:10,0.443,0.259,0.457,0.425,0.396,0.214,0.185,south,9.1,No
2016/06/05,13:20,0.441,0.260,0.458,0.425,0.395,0.212,0.185,south,10.1,No
2016/06/05,13:30,0.441,0.259,0.457,0.424,0.395,0.212,0.184,south,9.9,No
2016/06/05,13:40,0.437,0.259,0.458,0.422,0.394,0.213,0.186,south,7.9,No
2016/06/05,13:50,0.437,0.259,0.458,0.424,0.392,0.213,0.186,south,9.8,No
2016/06/05,14:00,0.438,0.260,0.458,0.424,0.392,0.213,0.184,south,10.7,No
2016/06/05,14:10,0.444,0.262,0.457,0.428,0.392,0.214,0.186,south,8.9,No
2016/06/05,14:20,0.444,0.260,0.456,0.426,0.391,0.216,0.184,south,9.2,No
2016/06/05,14:30,0.440,0.260,0.464,0.424,0.391,0.213,0.186,south,8.4,No
2016/06/05,14:40,0.437,0.259,0.464,0.422,0.397,0.213,0.185,south,7.7,No
2016/06/05,14:50,0.441,0.257,0.461,0.423,0.397,0.213,0.185,south,7.5,No
2016/06/05,15:00,0.445,0.259,0.457,0.427,0.395,0.213,0.185,south-southeast,6.4,No
2016/06/05,15:10,0.442,0.261,0.457,0.428,0.393,0.213,0.186,south,7.0,No
2016/06/05,15:20,0.438,0.260,0.458,0.426,0.392,0.214,0.187,south,2.5,No
2016/06/05,15:30,0.439,0.259,0.459,0.421,0.391,0.212,0.186,south,4.5,No
2016/06/05,15:40,0.442,0.258,0.456,0.423,0.393,0.212,0.186,south,3.4,No
2016/06/05,15:50,0.441,0.258,0.456,0.427,0.394,0.211,0.186,east-southeast,1.7,No
2016/06/05,16:00,0.439,0.259,0.462,0.425,0.391,0.212,0.186,north-northeast,5.6,No
2016/06/05,16:10,0.444,0.261,0.464,0.422,0.390,0.213,0.184,north-northeast,7.7,No
2016/06/05,16:20,0.441,0.259,0.460,0.426,0.390,0.214,0.188,north,8.5,No
2016/06/05,16:30,0.440,0.259,0.459,0.429,0.392,0.213,0.186,north,7.3,No
2016/06/05,16:40,0.444,0.260,0.465,0.425,0.399,0.212,0.186,north,8.4,No
2016/06/05,16:50,0.440,0.259,0.461,0.425,0.396,0.213,0.188,north,10.0,No
2016/06/05,17:00,0.442,0.260,0.461,0.429,0.398,0.214,0.185,north,8.1,No
2016/06/05,17:10,0.442,0.261,0.464,0.424,0.399,0.212,0.186,north,7.4,No
2016/06/05,17:20,0.440,0.259,0.460,0.428,0.396,0.213,0.186,north,8.6,No
2016/06/05,17:30,0.443,0.261,0.465,0.426,0.398,0.213,0.186,north,7.7,No
2016/06/05,17:40,0.439,0.260,0.460,0.426,0.395,0.213,0.186,north,7.0,No
2016/06/05,17:50,0.442,0.261,0.463,0.429,0.399,0.213,0.186,north,6.4,No
2016/06/05,18:00,0.440,0.259,0.460,0.424,0.395,0.213,0.187,north,8.6,No
2016/06/05,18:10,0.442,0.261,0.462,0.427,0.398,0.213,0.186,north,7.8,No
2016/06/05,18:20,0.439,0.258,0.463,0.424,0.395,0.212,0.186,north,6.4,No
2016/06/05,18:30,0.442,0.261,0.459,0.425,0.397,0.214,0.186,north,7.3,No
2016/06/05,18:40,0.439,0.259,0.461,0.428,0.394,0.213,0.187,north,6.7,No
2016/06/05,18:50,0.442,0.260,0.460,0.424,0.395,0.213,0.186,north,6.2,No
2016/06/05,19:00,0.439,0.259,0.462,0.428,0.395,0.214,0.188,north,8.2,No
2016/06/05,19:10,0.441,0.262,0.459,0.422,0.394,0.213,0.186,north,7.3,No
2016/06/05,19:20,0.441,0.260,0.463,0.428,0.395,0.213,0.186,north,7.7,No
2016/06/05,19:30,0.442,0.260,0.460,0.425,0.392,0.213,0.185,north,4.5,No
2016/06/05,19:40,0.441,0.260,0.463,0.427,0.396,0.214,0.187,north,6.4,No
2016/06/05,19:50,0.443,0.261,0.460,0.426,0.393,0.212,0.185,north,6.1,No
2016/06/05,20:00,0.439,0.260,0.462,0.426,0.396,0.214,0.186,north,7.0,No
2016/06/05,20:10,0.443,0.260,0.462,0.427,0.393,0.213,0.186,north,6.1,No
2016/06/05,20:20,0.440,0.259,0.462,0.424,0.397,0.213,0.187,north,6.2,No
2016/06/05,20:30,0.442,0.261,0.460,0.429,0.393,0.213,0.186,north,6.4,No
2016/06/05,20:40,0.441,0.259,0.461,0.424,0.396,0.212,0.186,north,6.7,No
2016/06/05,20:50,0.441,0.260,0.462,0.429,0.392,0.214,0.186,north,6.7,No
2016/06/05,21:00,0.440,0.259,0.462,0.425,0.397,0.212,0.186,north,6.4,No
2016/06/05,21:10,0.441,0.261,0.463,0.430,0.393,0.213,0.186,north,4.9,No
2016/06/05,21:20,0.439,0.260,0.460,0.424,0.397,0.212,0.186,north-northwest,3.9,No
2016/06/05,21:30,0.442,0.261,0.461,0.427,0.392,0.213,0.186,north,5.3,No
2016/06/05,21:40,0.440,0.260,0.462,0.425,0.397,0.212,0.186,north,3.7,No
2016/06/05,21:50,0.442,0.261,0.461,0.427,0.392,0.213,0.187,north-northwest,2.2,No
2016/06/05,22:00,0.440,0.260,0.460,0.426,0.398,0.213,0.186,north,2.4,No
2016/06/05,22:10,0.442,0.261,0.463,0.425,0.392,0.214,0.186,north,2.7,No
2016/06/05,22:20,0.439,0.259,0.460,0.428,0.395,0.213,0.186,north,2.5,No
2016/06/05,22:30,0.443,0.259,0.462,0.425,0.393,0.213,0.186,north,3.7,No
2016/06/05,22:40,0.439,0.259,0.460,0.428,0.398,0.213,0.186,north-northwest,1.0,No
2016/06/05,22:50,0.441,0.261,0.462,0.424,0.393,0.212,0.186,northwest,1.4,No
2016/06/05,23:00,0.440,0.260,0.457,0.428,0.394,0.213,0.185,north,3.2,No
2016/06/05,23:10,0.443,0.260,0.463,0.425,0.395,0.211,0.186,north,4.0,No
2016/06/05,23:20,0.439,0.260,0.459,0.427,0.394,0.213,0.187,north,4.4,No
2016/06/05,23:30,0.443,0.260,0.461,0.425,0.395,0.212,0.186,north,4.0,No
2016/06/05,23:40,0.440,0.258,0.459,0.427,0.394,0.213,0.186,north,5.9,No
2016/06/05,23:50,0.441,0.260,0.462,0.426,0.394,0.212,0.187,north,4.2,No
